Location: G�rlitz
(51.1670°N, 15.0000°E)
Time: 18:42:02
(UTC+01:00)

ISS - Visible Passes

Search period start: 14 December 2025 00:00
Search period end: 24 December 2025 00:00
Orbit: 416 x 420 km, 51.6° (Epoch: 13 December)

Date Brightness Start Highest point End Pass type
(mag) Time Alt. Az. Time Alt. Az. Time Alt. Az.
14 Dec -1.2 06:27:28 10° SSW 06:30:11 23° SE 06:32:54 10° E visible
15 Dec -0.8 05:40:15 10° S 05:42:22 16° SE 05:44:30 10° E visible
15 Dec -3.0 07:15:19 10° WSW 07:18:39 57° SSE 07:21:59 10° E visible
16 Dec -0.6 04:53:51 10° SSE 04:54:35 11° SE 04:55:18 10° ESE visible
16 Dec -2.6 06:27:28 10° SW 06:30:41 42° SSE 06:33:54 10° E visible
17 Dec -2.1 05:41:17 22° SSW 05:42:44 31° SSE 05:45:46 10° E visible
17 Dec -3.7 07:15:53 10° WSW 07:19:17 86° SSE 07:22:40 10° E visible
18 Dec -1.2 04:55:38 20° ESE 04:55:38 20° ESE 04:57:29 10° E visible
18 Dec -3.6 06:28:35 16° WSW 06:31:12 72° SSE 06:34:36 10° E visible
19 Dec -3.3 05:42:44 51° SSW 05:43:09 56° SSE 05:46:29 10° E visible
19 Dec -3.8 07:16:30 10° W 07:19:53 80° N 07:23:17 10° E visible
20 Dec -1.3 04:56:46 23° E 04:56:46 23° E 04:58:19 10° E visible
20 Dec -3.8 06:29:41 22° W 06:31:45 85° N 06:35:08 10° E visible
21 Dec -3.8 05:43:37 85° SSE 05:43:37 85° SSE 05:46:59 10° E visible
21 Dec -3.7 07:17:02 10° W 07:20:25 87° N 07:23:48 10° E visible
22 Dec -1.3 04:57:26 22° E 04:57:26 22° E 04:58:48 10° E visible
22 Dec -3.8 06:30:21 24° W 06:32:14 81° N 06:35:37 10° E visible
23 Dec -3.8 05:44:07 79° NNE 05:44:07 79° NNE 05:47:24 10° E visible
23 Dec -3.5 07:17:27 10° W 07:20:48 68° SSW 07:24:09 10° ESE visible
